GW5844 Weather Reports


time (UTC)temp
C
wind
direction
speed
KPH
gust
KPH
rain 1hr
cm
rain 24hr
cm
rain mn
cm
humidity
%
barometer
mb
20260506024527 20 179 1.6 3.2 0.00 0.00 0.00 56 1015.5
20260506023022 20 192 0.0 4.8 0.00 0.00 0.00 56 1015.3
20260506021508 20 163 0.0 4.8 0.00 0.00 0.00 55 1015.0
20260506020017 20 238 1.6 4.8 0.00 0.00 0.00 53 1014.9
20260506014518 21 197 0.0 4.8 0.00 0.00 0.00 52 1014.9
20260506013024 21 164 0.0 3.2 0.00 0.00 0.00 52 1015.2
20260506011523 21 175 0.0 6.4 0.00 0.00 0.00 51 1015.1
20260506010029 21 200 1.6 4.8 0.00 0.00 0.00 49 1015.0
20260506004514 22 196 0.0 4.8 0.00 0.00 0.00 48 1014.9
20260506001524 22 198 3.2 6.4 0.00 0.00 0.00 45 1014.9
20260506000026 22 219 0.0 4.8 0.00 0.00 0.00 45 1014.8
20260505234510 23 233 1.6 6.4 0.00 0.00 0.00 43 1015.0
20260505233012 24 213 4.8 11.3 0.00 0.00 0.00 40 1014.7
20260505231521 25 272 4.8 16.1 0.00 0.00 0.00 38 1014.7
20260505230026 25 212 4.8 16.1 0.00 0.00 0.00 38 1014.6
20260505224526 25 203 4.8 14.5 0.00 0.00 0.00 38 1014.7
20260505223013 26 210 4.8 11.3 0.00 0.00 0.00 37 1014.6
20260505221514 26 160 4.8 17.7 0.00 0.00 0.00 36 1014.6
20260505220024 26 199 6.4 17.7 0.00 0.00 0.00 35 1014.8
20260505214523 26 245 6.4 17.7 0.00 0.00 0.00 35 1014.9
20260505213029 25 169 6.4 16.1 0.00 0.00 0.00 37 1014.8
20260505211528 25 185 9.7 20.9 0.00 0.00 0.00 36 1015.1
20260505210018 25 250 4.8 14.5 0.00 0.00 0.00 38 1015.1
20260505204521 25 232 6.4 12.9 0.00 0.00 0.00 38 1015.2
20260505203031 25 165 9.7 17.7 0.00 0.00 0.00 37 1015.4
20260505201527 25 231 8.0 14.5 0.00 0.00 0.00 37 1015.6
20260505200032 26 243 8.0 20.9 0.00 0.00 0.00 36 1015.6
20260505194518 25 158 1.6 17.7 0.00 0.00 0.00 38 1016.2
20260505193023 25 214 1.6 19.3 0.00 0.00 0.00 40 1016.5
20260505191526 25 320 8.0 19.3 0.00 0.00 0.00 36 1016.7
20260505190034 25 176 4.8 24.1 0.00 0.00 0.00 38 1016.9
20260505184529 25 245 8.0 24.1 0.00 0.00 0.00 35 1017.0
20260505183019 25 250 8.0 16.1 0.00 0.00 0.00 37 1017.0
20260505181503 23 235 8.0 17.7 0.00 0.00 0.00 38 1017.2
20260505180008 24 82 6.4 24.1 0.00 0.00 0.00 38 1017.6
20260505174510 25 340 6.4 25.7 0.00 0.00 0.00 37 1017.9
20260505173039 24 248 11.3 22.5 0.00 0.00 0.00 31 1017.9
20260505171527 24 274 12.9 22.5 0.00 0.00 0.00 34 1018.1
20260505170014 23 281 6.4 12.9 0.00 0.00 0.00 40 1017.8
20260505164508 23 335 3.2 17.7 0.00 0.00 0.00 39 1017.7
20260505163019 23 254 6.4 12.9 0.00 0.00 0.00 44 1018.0
20260505161516 23 153 6.4 12.9 0.00 0.00 0.00 45 1018.1
20260505153009 22 195 4.8 12.9 0.00 0.00 0.00 49 1018.6
20260505151509 22 129 4.8 9.7 0.00 0.00 0.00 54 1018.8
20260505124515 16 229 3.2 6.4 0.00 0.00 0.00 71 1018.1
20260505123027 15 141 0.0 3.2 0.00 0.00 0.00 74 1018.0
20260505121526 13 38 0.0 0.0 0.00 0.00 0.00 80 1017.9
20260505120052 11 38 0.0 1.6 0.00 0.00 0.00 85 1017.8
20260505114512 10 57 1.6 3.2 0.00 0.00 0.00 89 1017.7
20260505113027 8 135 0.0 1.6 0.00 0.00 0.00 91 1017.6
20260505111521 8 135 0.0 1.6 0.00 0.00 0.00 91 1017.6
20260505101522 6 131 0.0 0.0 0.00 0.00 0.00 91 1017.4
20260505100027 6 131 0.0 0.0 0.00 0.00 0.00 90 1017.3
20260505094524 7 131 0.0 0.0 0.00 0.00 0.00 90 1017.3
20260505093010 7 131 0.0 1.6 0.00 0.00 0.00 89 1017.3
20260505091524 7 131 0.0 1.6 0.00 0.00 0.00 90 1017.2
20260505090035 7 131 0.0 0.0 0.00 0.00 0.00 89 1017.0
20260505084516 7 131 0.0 0.0 0.00 0.00 0.00 89 1016.8
20260505083017 8 131 0.0 0.0 0.00 0.00 0.00 88 1016.7
20260505081512 8 131 0.0 0.0 0.00 0.00 0.00 87 1016.7
20260505080013 8 131 0.0 0.0 0.00 0.00 0.00 86 1016.7
20260505074514 8 131 0.0 1.6 0.00 0.00 0.00 84 1016.6
20260505073028 8 131 0.0 0.0 0.00 0.00 0.00 84 1016.6
20260505071519 9 131 0.0 0.0 0.00 0.00 0.00 83 1016.6
20260505070012 10 120 0.0 3.2 0.00 0.00 0.00 82 1016.7
20260505064532 10 199 0.0 0.0 0.00 0.00 0.00 82 1016.7
20260505063018 10 199 0.0 0.0 0.00 0.00 0.00 83 1016.6
20260505061530 10 200 0.0 0.0 0.00 0.00 0.00 82 1016.7
20260505060019 10 199 0.0 0.0 0.00 0.00 0.00 80 1016.5
20260505054512 11 200 0.0 0.0 0.00 0.00 0.00 78 1016.6
20260505053016 11 200 0.0 0.0 0.00 0.00 0.00 78 1016.7
20260505051521 11 199 0.0 0.0 0.00 0.00 0.00 75 1016.9
20260505041516 12 204 0.0 0.0 0.00 0.00 0.00 71 1016.8
20260505040021 12 204 0.0 0.0 0.00 0.00 0.00 70 1016.8
20260505034523 13 203 0.0 0.0 0.00 0.00 0.00 68 1017.0
20260505033022 13 204 0.0 0.0 0.00 0.00 0.00 67 1017.0
20260505031539 14 204 0.0 0.0 0.00 0.00 0.00 64 1017.0
20260505030020 15 203 0.0 1.6 0.00 0.00 0.00 63 1017.0